TimeEDT,TemperatureF,Dew PointF,Humidity,Sea Level PressureIn,VisibilityMPH,Wind Direction,Wind SpeedMPH,Gust SpeedMPH,PrecipitationIn,Events,Conditions,WindDirDegrees,DateUTC
12:15 AM,65.3,64.4,97,30.11,10.0,Calm,Calm,-,N/A,,Clear,0,2013-08-03 04:15:00
12:35 AM,64.8,63.7,96,30.11,7.0,Calm,Calm,-,N/A,,Clear,0,2013-08-03 04:35:00
12:55 AM,64.0,63.5,98,30.10,7.0,Calm,Calm,-,N/A,,Clear,0,2013-08-03 04:55:00
1:15 AM,63.7,63.0,97,30.10,7.0,Calm,Calm,-,N/A,,Clear,0,2013-08-03 05:15:00
1:35 AM,63.9,63.3,98,30.10,7.0,Calm,Calm,-,N/A,,Clear,0,2013-08-03 05:35:00
1:55 AM,63.0,62.6,99,30.10,7.0,Calm,Calm,-,N/A,,Clear,0,2013-08-03 05:55:00
2:15 AM,62.8,62.6,99,30.10,5.0,Calm,Calm,-,N/A,,Clear,0,2013-08-03 06:15:00
2:35 AM,63.1,62.6,98,30.10,7.0,Calm,Calm,-,N/A,,Clear,0,2013-08-03 06:35:00
2:55 AM,62.2,61.9,99,30.10,5.0,Calm,Calm,-,N/A,,Clear,0,2013-08-03 06:55:00
3:15 AM,61.7,61.3,99,30.10,4.0,Calm,Calm,-,N/A,,Clear,0,2013-08-03 07:15:00
3:35 AM,61.5,61.0,98,30.09,4.0,Calm,Calm,-,N/A,,Clear,0,2013-08-03 07:35:00
3:55 AM,62.2,61.7,98,30.09,7.0,Calm,Calm,-,N/A,,Clear,0,2013-08-03 07:55:00
4:15 AM,61.3,61.0,99,30.09,5.0,Calm,Calm,-,N/A,,Clear,0,2013-08-03 08:15:00
4:35 AM,61.7,61.3,99,30.08,5.0,Calm,Calm,-,N/A,,Clear,0,2013-08-03 08:35:00
4:55 AM,61.0,60.4,98,30.09,7.0,Calm,Calm,-,N/A,,Clear,0,2013-08-03 08:55:00
5:15 AM,61.7,61.7,100,30.09,5.0,Calm,Calm,-,N/A,,Clear,0,2013-08-03 09:15:00
5:35 AM,62.2,61.7,98,30.09,7.0,Calm,Calm,-,N/A,,Clear,0,2013-08-03 09:35:00
5:55 AM,61.9,61.7,99,30.09,5.0,Calm,Calm,-,N/A,,Clear,0,2013-08-03 09:55:00
6:15 AM,62.6,61.9,97,30.09,7.0,Calm,Calm,-,N/A,,Clear,0,2013-08-03 10:15:00
6:35 AM,62.2,61.7,98,30.09,7.0,Calm,Calm,-,N/A,,Clear,0,2013-08-03 10:35:00
6:55 AM,61.9,61.7,99,30.09,5.0,Calm,Calm,-,N/A,,Clear,0,2013-08-03 10:55:00
7:15 AM,62.2,61.9,99,30.10,5.0,Calm,Calm,-,N/A,,Clear,0,2013-08-03 11:15:00
7:35 AM,62.6,62.1,98,30.10,5.0,Calm,Calm,-,N/A,,Clear,0,2013-08-03 11:35:00
7:55 AM,63.0,62.4,98,30.10,5.0,Calm,Calm,-,N/A,,Clear,0,2013-08-03 11:55:00
8:15 AM,63.5,62.6,97,30.11,7.0,Calm,Calm,-,N/A,,Clear,0,2013-08-03 12:15:00
8:35 AM,64.8,63.1,94,30.11,7.0,Calm,Calm,-,N/A,,Clear,0,2013-08-03 12:35:00
8:55 AM,66.2,64.2,93,30.10,7.0,Calm,Calm,-,N/A,,Clear,0,2013-08-03 12:55:00
9:15 AM,68.4,64.6,88,30.10,10.0,Calm,Calm,-,N/A,,Clear,0,2013-08-03 13:15:00
9:35 AM,70.2,65.7,86,30.11,10.0,Calm,Calm,-,N/A,,Clear,0,2013-08-03 13:35:00
9:55 AM,72.1,65.1,78,30.11,10.0,Calm,Calm,-,N/A,,Clear,0,2013-08-03 13:55:00
10:15 AM,74.1,66.2,76,30.11,10.0,Calm,Calm,-,N/A,,Clear,0,2013-08-03 14:15:00
10:35 AM,75.4,67.1,75,30.11,10.0,Calm,Calm,-,N/A,,Clear,0,2013-08-03 14:35:00
10:55 AM,76.3,68.0,75,30.10,10.0,Calm,Calm,-,N/A,,Clear,0,2013-08-03 14:55:00
11:15 AM,77.5,66.7,69,30.10,10.0,Calm,Calm,-,N/A,,Scattered Clouds,0,2013-08-03 15:15:00
11:35 AM,79.0,68.0,69,30.11,10.0,SW,3.5,-,N/A,,Mostly Cloudy,230,2013-08-03 15:35:00
11:55 AM,77.9,66.9,69,30.10,10.0,SW,4.6,-,N/A,,Overcast,230,2013-08-03 15:55:00
12:15 PM,79.2,67.8,68,30.10,10.0,WSW,3.5,-,N/A,,Overcast,240,2013-08-03 16:15:00
12:35 PM,79.0,67.8,69,30.10,10.0,WSW,4.6,-,N/A,,Scattered Clouds,240,2013-08-03 16:35:00
12:55 PM,80.1,68.4,67,30.10,10.0,WSW,6.9,-,N/A,,Scattered Clouds,250,2013-08-03 16:55:00
1:15 PM,79.5,67.3,66,30.10,10.0,SW,6.9,-,N/A,,Scattered Clouds,220,2013-08-03 17:15:00
1:35 PM,78.8,67.5,68,30.11,10.0,SW,5.8,-,N/A,,Mostly Cloudy,230,2013-08-03 17:35:00
1:55 PM,78.4,67.5,69,30.11,10.0,SW,4.6,-,N/A,,Overcast,220,2013-08-03 17:55:00
2:15 PM,79.2,68.4,69,30.10,10.0,SW,4.6,-,N/A,,Overcast,220,2013-08-03 18:15:00
2:35 PM,79.9,68.2,67,30.09,10.0,WSW,6.9,-,N/A,,Mostly Cloudy,240,2013-08-03 18:35:00
2:55 PM,79.5,66.7,65,30.09,10.0,WSW,6.9,-,N/A,,Overcast,250,2013-08-03 18:55:00
3:15 PM,79.2,67.3,67,30.09,10.0,WSW,6.9,-,N/A,,Overcast,240,2013-08-03 19:15:00
3:35 PM,80.1,66.2,62,30.09,10.0,WSW,5.8,-,N/A,,Overcast,240,2013-08-03 19:35:00
3:55 PM,79.7,65.5,62,30.08,10.0,WSW,9.2,-,N/A,,Overcast,250,2013-08-03 19:55:00
4:15 PM,79.5,67.5,66,30.08,10.0,West,6.9,-,N/A,,Overcast,260,2013-08-03 20:15:00
4:35 PM,78.8,67.1,67,30.08,10.0,WSW,5.8,-,N/A,,Mostly Cloudy,240,2013-08-03 20:35:00
4:55 PM,78.8,67.6,68,30.07,10.0,WSW,6.9,-,N/A,,Overcast,250,2013-08-03 20:55:00
5:15 PM,77.9,67.6,71,30.07,10.0,SW,3.5,-,N/A,,Overcast,230,2013-08-03 21:15:00
5:35 PM,77.2,68.0,73,30.07,10.0,WSW,5.8,-,N/A,,Overcast,240,2013-08-03 21:35:00
5:55 PM,76.3,68.4,76,30.07,10.0,WSW,4.6,-,N/A,,Overcast,250,2013-08-03 21:55:00
6:15 PM,77.0,68.9,76,30.06,10.0,West,4.6,-,N/A,,Overcast,260,2013-08-03 22:15:00
6:35 PM,76.3,69.1,78,30.06,10.0,Calm,Calm,-,N/A,,Overcast,0,2013-08-03 22:35:00
6:55 PM,75.9,69.6,81,30.06,10.0,Calm,Calm,-,N/A,,Scattered Clouds,0,2013-08-03 22:55:00
7:15 PM,75.4,70.0,83,30.05,10.0,Calm,Calm,-,N/A,,Clear,0,2013-08-03 23:15:00
7:35 PM,75.2,70.7,86,30.06,10.0,Calm,Calm,-,N/A,,Clear,0,2013-08-03 23:35:00
7:55 PM,74.1,70.7,89,30.06,10.0,Calm,Calm,-,N/A,,Clear,0,2013-08-03 23:55:00
8:15 PM,73.0,70.5,92,30.07,7.0,Calm,Calm,-,N/A,,Clear,0,2013-08-04 00:15:00
8:35 PM,72.0,69.8,93,30.07,7.0,Calm,Calm,-,N/A,,Clear,0,2013-08-04 00:35:00
8:55 PM,71.2,69.1,93,30.08,10.0,Calm,Calm,-,N/A,,Clear,0,2013-08-04 00:55:00
9:15 PM,70.3,68.9,95,30.08,7.0,Calm,Calm,-,N/A,,Scattered Clouds,0,2013-08-04 01:15:00
9:35 PM,69.8,68.7,96,30.08,7.0,Calm,Calm,-,N/A,,Mostly Cloudy,0,2013-08-04 01:35:00
9:55 PM,69.1,68.0,96,30.08,7.0,Calm,Calm,-,N/A,,Scattered Clouds,0,2013-08-04 01:55:00
10:15 PM,69.1,68.0,96,30.09,7.0,Calm,Calm,-,N/A,,Scattered Clouds,0,2013-08-04 02:15:00
10:35 PM,68.9,67.6,96,30.09,7.0,Calm,Calm,-,N/A,,Scattered Clouds,0,2013-08-04 02:35:00
10:55 PM,68.0,67.1,97,30.09,7.0,Calm,Calm,-,N/A,,Clear,0,2013-08-04 02:55:00
11:15 PM,68.0,66.9,96,30.10,7.0,Calm,Calm,-,N/A,,Clear,0,2013-08-04 03:15:00
11:35 PM,68.0,66.9,96,30.10,7.0,Calm,Calm,-,N/A,,Clear,0,2013-08-04 03:35:00
11:55 PM,67.1,66.4,98,30.10,5.0,Calm,Calm,-,N/A,,Clear,0,2013-08-04 03:55:00